Notices

What's New in latest Release from April 7th, 2021:

- Updated Glossary, including Speed of Maximum Gust, and Total Hourly Precipitation

- Updated national and regional climate services offices contacts and prices information

- Addition of station inventory lists for 1981-2010, 1971-2000, and 1961-1990 Normals.

Please note that as of June 10, 2021 UTC dates are available for all years 2004-present, and DBA is working on populating the remaining years (2003 to 1953).

If you haven't already, please take our survey and provide feedback about our website: https://eccc.sondage-survey.ca/f/LanguageSelection.aspx?s=442ca660-fcf1-47c0-95a9-59707d6fd709

Hourly Data Report for April 14, 2004

TORONTO CITY
ONTARIO

43°40'00.000" N
79°24'00.000" W
112.50 m
6158355
71508
XTO

Download Data

Hourly Data (April 2004)
Hourly Data Report for April 14, 2004
TIME
LST
Temp Definition
°C
Dew Point Definition
°C
Rel Hum Definition
%
Precip. Amount Definition
mm

Wind Dir Definition
10's deg

Wind Spd Definition
km/h
Visibility Definition
km
Stn Press Definition
kPa
Hmdx Definition


Wind Chill Definition


Weather Definition


00:00 4.3 1.3 81   LegendMM LegendMM LegendMM 99.53     LegendNANA
01:00 4.0 1.2 82   LegendMM LegendMM LegendMM 99.59     LegendNANA
02:00 4.1 1.1 81   LegendMM LegendMM LegendMM 99.56     LegendNANA
03:00 4.1 1.0 80   LegendMM LegendMM LegendMM 99.59     LegendNANA
04:00 4.2 0.9 79   LegendMM LegendMM LegendMM 99.59     LegendNANA
05:00 3.6 0.5 80   LegendMM LegendMM LegendMM 99.68     LegendNANA
06:00 3.3 0.4 81   LegendMM LegendMM LegendMM 99.80     LegendNANA
07:00 4.4 0.7 77   LegendMM LegendMM LegendMM 99.94     LegendNANA
08:00 6.6 0.7 66   LegendMM LegendMM LegendMM 100.01     LegendNANA
09:00 8.2 -0.9 53   LegendMM LegendMM LegendMM 100.05     LegendNANA
10:00 9.5 -0.5 50   LegendMM LegendMM LegendMM 100.06     LegendNANA
11:00 10.8 0.8 50   LegendMM LegendMM LegendMM 100.07     LegendNANA
12:00 11.6 -2.3 38   LegendMM LegendMM LegendMM 100.04     LegendNANA
13:00 12.4 -0.6 41   LegendMM LegendMM LegendMM 100.02     LegendNANA
14:00 12.8 -1.6 37   LegendMM LegendMM LegendMM 100.03     LegendNANA
15:00 12.7 -2.1 36   LegendMM LegendMM LegendMM 100.02     LegendNANA
16:00 11.5 -4.7 32   LegendMM LegendMM LegendMM 100.05     LegendNANA
17:00 11.1 -5.1 32   LegendMM LegendMM LegendMM 100.08     LegendNANA
18:00 10.4 -4.9 34   LegendMM LegendMM LegendMM 100.13     LegendNANA
19:00 9.1 -4.9 37   LegendMM LegendMM LegendMM 100.18     LegendNANA
20:00 8.0 -4.9 40   LegendMM LegendMM LegendMM 100.24     LegendNANA
21:00 7.4 -4.8 42   LegendMM LegendMM LegendMM 100.32     LegendNANA
22:00 7.0 -3.9 46   LegendMM LegendMM LegendMM 100.37     LegendNANA
23:00 6.5 -3.0 51   LegendMM LegendMM LegendMM 100.40     LegendNANA

Notes on Data Quality.

Legend

  • E = Estimated
  • M = Missing
  • NA = Not Available*
  • [empty] = Indicates an unobserved value
Date modified: